Home > Weather > Mosbach > Past weeks

Flag for Germany Past Weather in Mosbach, Baden-Württemberg, Germany — Yesterday and Last 2 Weeks

Now
54 °F

Overcast.


Feels Like: 52 °F
Forecast: 44 / 69 °F
Wind: 7 mph from Northwest

Location: Mannheim City

Current Time: May 24, 2016 at 5:47:25 PM

Latest Report: May 24, 2016 at 4:50 PM


Visibility: N/A

Pressure: 29.98 "Hg

Humidity: 82%

Dew Point: 48 °F

Location of MosbachLocation

Past Weather in Mosbach — Graph

°F

Mosbach Temperature Yesterday

Maximum temperature yesterday: 59 °F (at 10:20 AM)
Minimum temperature yesterday: 54 °F (at 6:50 AM)
Average temperature yesterday: 57 °F

High & Low Weather Summary for the Past Weeks

 TemperatureHumidityPressure
High81 °F (May 22, 2:50 PM)100% (May 10, 8:20 PM)30.15 "Hg (May 10, 8:20 PM)
Low45 °F (May 17, 5:50 AM)28% (May 22, 4:20 PM)29.45 "Hg (May 12, 7:50 PM)
Average61 °F66%29.87 "Hg
* Reported May 9 4:20 PM — May 24 4:20 PM, Mosbach, Weather by CustomWeather, © 2016

Note: Actual official high and low records may vary slightly from our data, if they occured in-between our weather recording intervals... More about our weather records

Advertising

Mosbach Weather History for the Previous 24 Hours

Scroll right to see more
 ConditionsComfort  
Time TempWeatherWind HumidityBarometerVisibility
4:20 PM
Tue, May 24
54 °FMore clouds than sun.9 mph82%29.98 "HgN/A
3:50 PM54 °FMore clouds than sun.9 mph82%29.98 "HgN/A
3:20 PM54 °FPartly sunny.7 mph88%29.98 "HgN/A
2:50 PM54 °FPartly sunny.9 mph88%29.98 "HgN/A
2:20 PM54 °FPartly sunny.10 mph88%29.98 "HgN/A
1:50 PM54 °FLight rain. Broken clouds.12 mph88%29.98 "HgN/A
1:20 PM54 °FLight rain. Partly sunny.8 mph94%29.98 "HgN/A
12:50 PM54 °FLight rain. More clouds than sun.12 mph88%29.98 "HgN/A
12:20 PM54 °FLight rain. Broken clouds.9 mph88%29.98 "HgN/A
11:50 AM54 °FLight rain. Overcast.12 mph88%29.98 "HgN/A
11:20 AM54 °FLight rain. Overcast.10 mph88%29.98 "HgN/A
10:50 AM52 °FLight rain. Overcast.9 mph94%29.98 "HgN/A
10:20 AM54 °FLight rain. More clouds than sun.10 mph82%29.98 "HgN/A
9:50 AM54 °FOvercast.12 mph82%29.98 "HgN/A
9:20 AM54 °FOvercast.10 mph82%29.98 "HgN/A
8:50 AM54 °FOvercast.10 mph82%29.98 "HgN/A
8:20 AM54 °FOvercast.13 mph82%29.98 "HgN/A
7:50 AM54 °FMostly cloudy.6 mph88%29.98 "Hg6 mi
7:20 AM54 °FFog.13 mph82%29.95 "Hg3 mi
6:50 AM54 °FOvercast.14 mph82%29.95 "HgN/A
6:20 AM54 °FOvercast.13 mph82%29.95 "HgN/A
5:50 AM54 °FOvercast.9 mph82%29.95 "HgN/A
5:20 AM54 °FOvercast.10 mph82%29.95 "HgN/A
9:20 PM
Mon, May 23
57 °FBroken clouds.15 mph72%29.95 "HgN/A
8:50 PM57 °FOvercast.12 mph72%29.92 "HgN/A
7:50 PM59 °FCloudy.12 mph68%29.92 "HgN/A
7:20 PM57 °FMostly cloudy.7 mph88%29.92 "HgN/A
6:50 PM57 °FOvercast.10 mph88%29.89 "HgN/A
6:20 PM57 °FBroken clouds.9 mph82%29.89 "HgN/A
5:50 PM59 °FPartly sunny.9 mph82%29.89 "HgN/A
5:20 PM59 °FPartly sunny.8 mph82%29.92 "HgN/A
Weather by CustomWeather, © 2016

See weather overviewHow to use our weather pages